Wind_Speed
41 41 40 40 40 42 41 39 37 36 34 33 32 30 28 28 26 26 23 21 20 19 17 16 15 15 14 13 13 12 12 11 11 10 10 9 9 9 9 8 8 8 8 8 8 9 9 9 9
40 41 41 42 43 43 41 39 37 36 35 34 33 31 29 29 28 26 24 22 21 20 19 18 17 16 15 15 14 13 13 12 12 12 11 10 10 10 10 10 9 9 10 10 10 10 10 11 11
39 41 42 42 43 42 40 39 37 36 35 34 33 32 30 29 28 27 25 23 22 21 20 19 19 18 17 16 15 15 14 14 13 13 12 12 11 11 11 11 11 11 11 12 12 11 11 12 12
38 40 42 43 42 39 39 39 37 36 35 34 34 33 31 30 29 27 25 24 23 23 21 20 19 19 18 17 17 16 16 15 14 14 14 13 12 12 12 13 13 13 13 13 13 13 13 14 14
37 39 42 43 41 40 40 39 37 36 35 34 34 33 32 30 29 28 27 25 24 24 23 22 21 20 19 19 18 17 17 16 16 15 15 14 14 14 14 14 14 15 15 15 15 15 15 16 16
36 38 41 43 41 40 39 39 37 36 36 35 34 34 33 31 30 29 28 27 26 25 25 24 23 22 21 20 19 19 18 18 17 16 16 15 15 15 15 16 16 16 17 17 17 17 17 17 17
34 37 39 40 41 40 38 38 37 36 36 35 34 34 33 32 31 30 29 28 27 25 26 26 25 24 23 22 21 20 19 19 18 18 17 17 17 17 17 17 18 18 18 18 18 18 18 18 18
32 34 36 38 38 39 37 36 36 36 36 35 35 34 32 32 31 31 30 29 28 26 25 27 27 25 25 24 22 21 21 20 20 19 18 18 18 18 18 18 18 19 19 19 19 19 19 20 20
29 32 33 35 35 36 36 35 34 34 34 34 34 33 32 31 31 31 30 30 29 28 26 26 26 26 26 25 24 23 22 22 21 20 19 19 19 19 19 19 19 19 20 20 20 20 21 21 21
26 29 31 31 33 35 35 33 33 33 33 33 33 32 32 31 31 31 31 31 30 29 27 27 26 26 26 26 25 24 24 23 22 21 20 20 20 20 20 20 20 21 21 21 21 21 22 22 22
23 25 27 28 30 32 33 32 32 33 32 31 31 30 32 32 31 31 31 31 31 29 27 27 26 26 26 27 26 26 25 24 23 21 21 20 20 20 20 20 21 21 21 21 21 22 22 23 23
20 22 25 26 28 29 31 31 31 31 31 30 30 30 31 31 31 31 31 32 31 29 28 26 26 27 27 27 26 26 26 25 24 23 22 21 21 21 21 21 22 22 22 22 22 23 24 24 24
17 21 24 25 25 27 29 30 30 30 30 30 30 31 31 31 30 31 31 32 31 29 28 27 26 27 27 27 27 26 26 24 24 23 23 23 22 22 22 23 23 23 24 24 24 24 24 25 25
15 19 22 23 23 25 28 29 30 29 30 30 29 30 30 30 31 31 31 31 31 30 30 29 29 28 27 27 27 26 25 24 24 24 23 23 23 23 23 24 24 25 26 26 26 26 26 26 26
14 16 19 21 21 23 25 27 29 28 28 29 29 29 30 30 30 31 30 30 30 30 30 30 29 28 28 28 27 26 25 25 24 25 24 24 24 24 25 25 26 27 27 28 28 28 28 28 28
13 15 16 19 20 20 23 24 26 26 26 27 27 28 30 29 30 29 29 30 30 30 30 30 29 28 28 27 26 26 26 25 25 26 26 25 26 26 26 27 28 28 29 29 30 30 30 30 30
10 13 15 17 18 19 20 21 23 24 24 24 25 27 28 29 29 29 29 29 29 30 29 29 30 28 27 27 27 28 27 27 27 28 28 27 27 27 28 29 29 29 30 30 31 31 31 32 32
8 10 13 16 17 18 18 18 19 21 22 22 23 25 27 28 28 28 28 28 28 28 29 29 30 29 27 26 27 28 28 29 28 29 29 30 29 28 28 29 29 29 30 31 32 32 32 33 33
6 8 10 12 13 14 16 18 18 19 20 20 21 23 26 26 27 28 28 28 28 28 29 29 29 28 28 27 27 28 27 28 30 30 31 31 31 30 30 30 30 30 31 32 32 33 34 34 34
6 7 8 10 10 11 13 15 17 18 17 18 19 20 22 24 24 25 26 26 27 27 28 28 28 28 28 27 26 26 27 29 31 32 32 33 33 33 31 31 32 32 33 33 33 33 34 34 35
5 6 8 8 9 11 13 14 16 17 17 18 19 20 21 22 23 24 24 24 25 27 28 29 27 27 28 28 28 27 28 29 31 31 31 32 33 34 33 33 33 34 34 34 34 34 34 35 35
4 6 7 7 9 10 13 14 16 17 17 18 20 21 22 23 24 25 25 25 26 27 29 29 29 28 29 29 29 29 30 31 32 33 32 33 34 35 35 34 34 34 35 35 35 35 35 35 35
3 5 6 6 8 10 12 14 16 17 18 19 20 21 23 24 25 26 26 27 27 28 28 29 30 30 30 30 31 31 32 32 33 34 36 36 36 36 36 36 36 36 35 35 35 36 36 36 35
4 5 5 7 8 10 12 14 15 17 18 19 21 22 24 25 26 27 28 28 29 29 29 30 30 31 31 31 32 33 33 33 34 35 36 36 37 38 37 36 36 35 35 34 34 36 37 37 36
5 6 7 8 9 10 11 13 14 16 18 19 20 22 24 25 27 28 28 28 28 29 30 31 32 32 33 32 32 32 33 34 35 35 36 37 38 38 38 37 36 36 35 35 35 36 37 37 37
7 7 8 9 11 11 13 14 14 16 18 20 21 22 24 25 27 28 28 28 28 29 30 31 32 32 33 33 33 33 33 34 35 36 37 37 38 38 38 38 37 38 38 37 37 37 38 38 38
8 9 10 11 12 13 14 14 15 17 18 20 21 23 24 25 27 27 28 29 29 30 31 32 33 33 33 34 34 34 34 35 36 37 37 37 37 38 39 39 40 40 41 40 40 40 39 39 39
10 10 11 12 13 14 15 15 16 17 18 20 21 23 24 26 27 28 29 30 30 31 32 33 34 35 35 35 35 36 36 37 37 37 37 38 39 39 40 40 41 42 42 42 42 42 42 41 41
12 12 13 13 14 15 16 16 16 18 19 21 22 23 24 26 27 28 30 31 31 32 33 34 35 36 37 38 38 38 38 38 38 38 39 39 40 40 41 41 41 41 42 43 43 43 43 43 42
13 14 14 15 16 16 17 16 17 18 20 21 23 24 25 26 28 29 30 31 32 33 33 34 35 36 37 38 39 40 40 39 39 39 39 39 40 41 41 41 42 42 43 43 44 44 45 45 45
Wind_Direction
243 240 237 236 236 236 235 235 234 233 231 230 229 228 227 228 229 230 232 232 233 234 235 236 236 237 237 238 236 233 235 236 238 242 246 248 249 251 253 254 256 258 261 265 268 271 272 273 276
241 238 235 233 234 234 234 234 234 232 232 230 229 228 226 226 228 230 231 232 233 235 236 237 237 236 236 238 238 235 237 238 240 244 246 247 250 252 254 255 258 261 265 267 270 273 274 276 277
239 235 233 231 232 233 234 233 232 231 231 229 228 227 225 225 226 227 229 231 232 234 235 236 237 236 235 236 240 236 238 240 242 244 245 245 248 251 254 257 260 264 267 269 271 275 276 277 278
236 234 231 230 231 231 233 232 231 230 230 229 228 226 225 225 226 227 228 230 231 233 235 235 235 235 235 236 239 235 237 240 241 244 245 246 248 252 256 259 263 266 267 268 270 274 276 278 280
235 232 229 228 229 228 230 230 230 230 229 228 228 227 224 225 226 227 228 229 230 231 234 235 234 235 235 236 238 236 236 239 241 244 247 248 251 253 258 261 263 265 267 269 271 274 276 278 279
234 231 229 228 227 228 228 229 229 229 228 226 226 227 225 224 225 226 227 228 230 231 234 235 234 235 235 237 238 237 236 239 240 244 248 251 254 256 259 261 263 265 268 270 272 274 276 277 278
233 230 229 228 227 227 228 229 229 228 227 226 226 226 225 224 224 225 227 228 231 232 233 235 233 232 235 237 237 236 238 240 241 244 249 253 256 258 261 263 265 266 268 270 272 274 275 277 278
231 229 228 226 226 225 225 227 227 227 227 226 225 225 224 223 224 225 227 229 231 233 234 233 231 231 234 236 237 237 239 241 243 246 250 255 258 260 262 264 266 266 268 269 271 273 275 277 277
228 226 225 224 224 224 224 225 225 226 227 226 224 224 224 224 224 225 226 229 231 232 234 233 231 232 233 234 235 236 239 241 243 246 251 255 258 261 263 264 266 267 268 268 270 272 275 277 279
221 223 223 223 223 222 222 223 223 223 224 224 223 223 223 222 224 224 226 228 231 232 233 233 232 233 234 233 233 235 239 240 243 246 250 254 258 261 263 266 267 269 269 269 271 272 274 276 279
219 221 221 221 220 218 219 220 220 222 222 222 221 221 221 223 225 225 227 227 229 231 231 230 231 233 233 232 232 236 239 239 242 246 250 255 258 261 263 266 267 270 269 270 272 273 274 276 278
216 217 218 216 217 216 217 218 219 220 219 218 218 219 219 222 224 225 225 225 227 230 231 229 231 232 233 234 233 236 238 238 241 245 250 255 258 261 265 267 268 269 270 271 272 273 274 275 277
214 214 214 212 215 215 215 217 217 215 217 216 216 218 219 222 224 225 224 225 227 230 229 229 232 233 234 235 235 237 239 239 242 246 251 257 260 263 265 267 268 270 270 271 273 274 276 277 277
213 209 211 212 212 212 211 214 216 215 215 215 216 217 220 222 222 224 225 225 226 229 229 229 231 233 234 235 235 237 239 241 244 248 253 258 261 263 266 268 269 272 272 271 272 273 274 276 277
205 204 208 211 211 210 210 213 214 212 214 216 218 219 218 220 220 222 225 225 227 230 232 232 233 234 237 237 237 238 241 243 246 251 255 258 262 265 268 270 271 273 273 272 272 272 273 274 276
202 204 208 208 208 206 209 208 210 210 213 214 217 220 219 220 221 222 226 228 229 232 234 234 234 236 238 239 239 240 243 247 248 252 257 261 265 267 269 270 272 273 273 272 272 272 273 274 276
202 207 207 206 207 205 208 206 208 210 213 215 215 218 221 221 223 224 227 228 230 233 236 237 237 237 239 242 242 246 249 251 253 254 258 264 268 269 269 271 272 273 273 272 271 272 272 275 276
198 204 207 210 210 210 208 204 208 212 213 215 216 217 218 222 225 226 227 229 231 234 237 239 238 238 241 245 247 250 253 255 257 257 261 264 267 269 271 272 273 274 274 274 272 272 273 274 277
196 201 204 209 211 215 214 213 216 216 215 214 217 219 220 224 228 228 229 230 233 236 237 240 241 241 243 248 251 253 255 258 260 260 263 266 267 270 273 273 272 273 274 275 275 274 274 275 276
190 199 202 208 212 216 217 219 221 219 218 219 219 220 222 226 229 230 232 234 236 239 241 244 243 244 246 251 255 258 259 261 262 264 266 267 267 268 270 272 273 273 274 274 274 274 275 276 277
195 205 211 218 223 223 224 222 222 222 224 224 225 225 226 228 231 233 235 239 241 242 244 244 246 248 252 254 256 259 262 264 265 267 269 268 269 270 271 272 273 273 273 274 274 274 275 276 278
228 222 225 227 227 228 228 230 227 227 228 228 228 227 228 230 232 235 238 241 243 244 245 247 249 251 254 256 258 259 262 264 266 268 270 271 270 271 272 273 274 275 274 273 274 275 276 278 280
257 246 240 232 234 238 238 240 235 233 233 234 233 233 232 233 234 235 240 243 246 248 248 249 251 254 256 258 259 261 264 266 268 270 271 272 274 274 274 274 275 274 275 275 275 276 278 280 280
283 275 267 254 245 243 242 243 241 238 238 237 237 237 236 236 238 239 241 245 247 249 250 252 255 258 260 262 261 263 264 266 267 269 271 272 273 274 274 275 275 274 275 275 276 276 277 278 279
298 291 289 275 260 255 250 248 244 241 240 239 240 240 240 240 240 242 244 247 249 251 252 254 257 260 262 264 265 265 265 267 269 270 272 273 274 275 274 274 274 274 274 276 276 276 277 277 278
302 299 294 289 274 266 259 255 249 244 243 242 243 243 243 244 244 244 247 249 251 253 255 258 260 263 264 265 267 268 268 270 271 271 272 273 274 275 275 274 274 275 276 276 276 277 278 278 279
299 297 295 292 283 274 267 262 254 250 248 247 247 246 247 247 248 249 249 251 254 256 258 260 262 264 266 267 268 270 270 271 272 271 272 273 273 274 275 275 276 277 278 278 277 278 279 279 280
300 296 294 291 287 282 277 269 261 257 255 253 251 250 249 249 250 252 253 254 257 259 260 262 264 265 267 269 270 271 273 272 273 272 272 272 273 274 276 277 278 278 278 278 279 279 279 280 281
305 298 295 290 286 284 282 277 269 263 260 257 255 254 254 255 255 257 258 259 260 261 262 264 266 267 268 269 271 272 274 274 274 273 274 274 275 276 277 277 277 278 278 279 279 279 280 281 282
302 299 294 290 286 283 282 279 272 268 265 261 259 258 258 259 260 261 262 263 264 265 265 266 268 269 270 271 272 274 274 275 275 275 276 277 278 279 279 278 278 278 278 278 279 279 280 281 282
Height
5798 5801 5804 5807 5810 5811 5815 5819 5823 5827 5831 5834 5837 5841 5845 5848 5851 5854 5855 5855 5857 5858 5859 5860 5861 5862 5863 5864 5865 5865 5866 5867 5867 5867 5868 5868 5868 5868 5868 5868 5868 5868 5868 5868 5868 5868 5867 5867 5867
5788 5791 5795 5797 5800 5803 5808 5812 5816 5821 5824 5828 5832 5835 5838 5841 5844 5847 5849 5851 5853 5854 5855 5857 5858 5859 5860 5861 5862 5863 5864 5864 5865 5865 5865 5866 5866 5866 5866 5866 5866 5866 5866 5866 5866 5865 5865 5864 5864
5778 5781 5785 5788 5791 5796 5802 5805 5810 5813 5817 5821 5825 5828 5832 5836 5839 5842 5844 5847 5849 5850 5852 5853 5854 5856 5857 5858 5859 5860 5861 5861 5862 5862 5863 5863 5863 5864 5864 5864 5864 5863 5863 5863 5863 5863 5862 5862 5861
5768 5771 5775 5779 5784 5790 5794 5798 5802 5807 5811 5815 5819 5822 5826 5831 5834 5837 5840 5842 5844 5846 5848 5849 5851 5852 5853 5854 5855 5856 5858 5858 5859 5859 5860 5860 5860 5861 5861 5861 5861 5861 5861 5860 5860 5860 5860 5859 5859
5758 5761 5765 5770 5777 5782 5786 5791 5795 5800 5804 5809 5813 5816 5821 5825 5828 5831 5834 5837 5840 5842 5843 5845 5847 5848 5849 5850 5852 5853 5854 5855 5856 5856 5857 5857 5857 5857 5858 5858 5858 5858 5857 5857 5857 5857 5856 5856 5855
5750 5752 5757 5763 5770 5774 5779 5784 5788 5793 5797 5802 5806 5810 5815 5819 5822 5826 5829 5832 5835 5837 5839 5841 5842 5844 5845 5846 5848 5849 5850 5851 5852 5853 5853 5854 5854 5854 5854 5854 5854 5854 5854 5854 5853 5853 5853 5852 5852
5742 5746 5750 5757 5762 5767 5773 5777 5782 5786 5791 5796 5800 5804 5809 5813 5817 5821 5824 5827 5830 5832 5834 5835 5837 5839 5840 5842 5843 5845 5846 5847 5849 5849 5850 5850 5850 5850 5850 5850 5850 5850 5850 5850 5849 5849 5849 5848 5848
5735 5739 5743 5749 5755 5761 5766 5770 5775 5779 5784 5789 5793 5798 5803 5808 5811 5815 5819 5822 5825 5827 5829 5830 5832 5834 5836 5837 5839 5841 5842 5844 5845 5845 5846 5846 5846 5846 5846 5846 5846 5846 5846 5845 5845 5845 5845 5844 5844
5728 5734 5737 5743 5749 5754 5759 5764 5769 5773 5777 5782 5787 5792 5798 5802 5806 5809 5813 5816 5819 5822 5823 5825 5827 5829 5831 5832 5834 5836 5838 5839 5840 5841 5841 5842 5842 5842 5842 5842 5842 5842 5841 5841 5841 5841 5840 5840 5839
5723 5728 5734 5739 5743 5748 5753 5758 5763 5768 5772 5777 5781 5786 5791 5796 5800 5804 5807 5811 5814 5816 5818 5820 5822 5824 5826 5827 5829 5831 5833 5834 5835 5836 5837 5837 5838 5838 5837 5837 5837 5837 5837 5836 5836 5836 5836 5835 5835
5719 5725 5729 5733 5738 5742 5748 5753 5757 5762 5767 5772 5776 5781 5786 5790 5794 5798 5801 5805 5808 5810 5812 5814 5817 5818 5821 5822 5824 5826 5827 5829 5830 5832 5832 5833 5833 5833 5833 5832 5832 5832 5832 5832 5831 5831 5831 5830 5830
5718 5721 5724 5729 5733 5738 5743 5747 5752 5757 5763 5767 5771 5776 5780 5784 5789 5792 5796 5799 5802 5805 5808 5809 5812 5813 5815 5817 5819 5821 5823 5824 5826 5827 5828 5828 5828 5828 5828 5828 5827 5827 5827 5827 5827 5826 5826 5825 5824
5716 5719 5722 5726 5730 5734 5739 5743 5747 5753 5758 5762 5767 5771 5775 5780 5783 5787 5791 5794 5797 5800 5803 5805 5807 5808 5810 5812 5814 5816 5818 5819 5821 5822 5823 5823 5823 5823 5823 5823 5822 5822 5822 5822 5821 5821 5820 5820 5819
5714 5717 5720 5723 5727 5731 5735 5739 5744 5749 5754 5758 5762 5767 5770 5774 5778 5781 5785 5788 5792 5795 5798 5800 5802 5804 5805 5806 5808 5810 5812 5814 5816 5817 5818 5818 5818 5818 5818 5818 5817 5817 5817 5816 5816 5815 5815 5814 5813
5714 5717 5719 5721 5725 5729 5733 5737 5741 5746 5750 5754 5758 5761 5766 5769 5773 5776 5779 5783 5787 5790 5792 5795 5797 5799 5801 5802 5803 5804 5807 5808 5810 5812 5813 5813 5813 5813 5812 5812 5812 5811 5811 5811 5810 5809 5808 5808 5807
5713 5716 5718 5721 5724 5727 5732 5735 5738 5742 5747 5750 5754 5758 5762 5766 5769 5772 5776 5779 5782 5785 5788 5790 5792 5794 5796 5797 5798 5800 5801 5803 5804 5806 5807 5807 5807 5807 5806 5806 5806 5805 5805 5804 5804 5803 5802 5801 5800
5714 5716 5717 5720 5722 5725 5729 5733 5736 5739 5743 5747 5750 5754 5758 5762 5765 5768 5771 5775 5778 5780 5783 5785 5787 5789 5791 5792 5794 5795 5796 5797 5799 5800 5801 5801 5801 5800 5800 5800 5799 5798 5798 5797 5796 5796 5795 5794 5793
5715 5716 5717 5720 5722 5725 5728 5732 5734 5738 5741 5744 5748 5751 5755 5759 5762 5765 5767 5770 5773 5775 5778 5781 5783 5784 5786 5787 5789 5790 5791 5792 5793 5794 5794 5794 5794 5794 5794 5793 5792 5792 5791 5790 5789 5788 5788 5787 5786
5716 5718 5719 5721 5723 5725 5728 5731 5734 5736 5739 5742 5745 5748 5752 5756 5758 5761 5763 5766 5769 5771 5774 5776 5778 5780 5781 5782 5784 5784 5785 5786 5787 5787 5788 5788 5787 5787 5787 5786 5786 5785 5784 5783 5782 5781 5780 5779 5778
5717 5718 5720 5721 5723 5725 5727 5730 5732 5735 5737 5740 5743 5746 5749 5752 5755 5757 5760 5762 5765 5767 5769 5771 5773 5774 5775 5776 5777 5778 5779 5780 5780 5781 5781 5781 5780 5780 5780 5779 5778 5777 5776 5776 5775 5774 5772 5771 5770
5718 5719 5720 5722 5723 5724 5727 5729 5731 5733 5735 5738 5741 5743 5746 5749 5752 5754 5756 5758 5761 5763 5764 5765 5767 5768 5769 5770 5771 5772 5773 5773 5773 5773 5773 5773 5773 5773 5772 5772 5771 5770 5769 5768 5767 5766 5765 5764 5762
5719 5720 5721 5721 5723 5724 5727 5728 5730 5731 5733 5736 5738 5741 5743 5745 5747 5750 5751 5753 5755 5757 5759 5760 5762 5763 5763 5764 5765 5765 5766 5766 5766 5766 5766 5766 5765 5765 5764 5764 5763 5762 5761 5760 5759 5758 5756 5755 5754
5720 5720 5720 5721 5722 5723 5724 5726 5729 5729 5731 5733 5735 5737 5739 5741 5743 5745 5747 5748 5750 5751 5753 5754 5755 5756 5757 5758 5758 5758 5758 5758 5758 5758 5758 5758 5757 5757 5756 5756 5755 5754 5753 5751 5750 5749 5748 5746 5745
5719 5720 5720 5720 5720 5722 5722 5723 5725 5726 5728 5729 5731 5733 5734 5736 5738 5740 5741 5742 5744 5745 5747 5748 5749 5750 5750 5750 5751 5751 5751 5751 5751 5751 5750 5750 5749 5749 5748 5747 5746 5745 5744 5743 5742 5740 5739 5738 5736
5719 5720 5719 5718 5718 5720 5720 5720 5723 5723 5724 5725 5727 5728 5729 5731 5732 5734 5735 5736 5738 5739 5740 5741 5742 5742 5742 5743 5743 5743 5743 5743 5743 5742 5742 5741 5740 5740 5739 5738 5737 5736 5735 5734 5733 5732 5730 5729 5727
5718 5718 5719 5718 5717 5717 5717 5718 5720 5719 5720 5721 5722 5723 5724 5725 5727 5728 5729 5731 5732 5733 5733 5734 5735 5735 5735 5735 5735 5735 5735 5735 5734 5734 5733 5732 5731 5731 5730 5729 5728 5727 5726 5725 5723 5722 5721 5719 5718
5717 5716 5716 5716 5714 5714 5714 5715 5715 5715 5715 5716 5717 5718 5719 5720 5721 5722 5723 5724 5725 5726 5726 5727 5727 5727 5727 5727 5727 5727 5727 5726 5725 5725 5724 5723 5722 5721 5720 5719 5718 5717 5716 5715 5713 5712 5711 5709 5708
5715 5714 5713 5712 5711 5711 5711 5711 5711 5711 5711 5711 5711 5712 5713 5714 5715 5716 5717 5717 5718 5719 5719 5719 5719 5719 5719 5719 5718 5718 5718 5717 5716 5715 5714 5713 5712 5712 5711 5709 5708 5707 5705 5704 5703 5702 5700 5699 5697
5712 5711 5709 5708 5708 5707 5707 5709 5707 5706 5706 5706 5706 5706 5707 5708 5708 5709 5709 5710 5710 5711 5711 5711 5711 5711 5710 5710 5710 5709 5708 5708 5707 5706 5705 5704 5703 5701 5700 5699 5697 5696 5694 5693 5692 5691 5689 5688 5686
5709 5707 5706 5705 5704 5703 5702 5706 5702 5701 5700 5700 5700 5700 5701 5701 5701 5702 5702 5702 5702 5702 5702 5702 5702 5701 5701 5700 5700 5699 5699 5698 5697 5696 5695 5693 5692 5691 5689 5688 5687 5685 5683 5682 5681 5680 5678 5677 5675